[[{"header":{"parameterUnit":"m.s-1","parameterCategory":2,"la1":30.2991,"la2":30.254,"lo1":-89.0895,"lo2":-89.0444,"dy":0.0017,"dx":0.0017,"nx":28,"ny":28,"refTime":"2023-10-22T09:00:00:Z","depth":"0","parameterNumber":2,"parameterNumberName":"U-component_of_CURRENTS"},"data":[0,0,0,0,0,0,0,0,0,0,0,0,0,0,0,0,0,0,0,0,0,0,0,0,0,0,0,0,0,0,0,0,0,0,0,0,0,0,0,0,0,0,0,0,0,0,0,0,0,0,0,0,0,0,0,0,0,0,-0.2919,-0.2918,0,-0.2809,-0.2807,-0.2805,-0.2701,-0.2701,-0.27,-0.2699,-0.2499,-0.2494,-0.249,0,0,0,0,0,0,0,0,0,0,0,0,0,-0.2878,-0.288,-0.2919,-0.2918,-0.2917,-0.2809,-0.2807,-0.2805,-0.2701,-0.2701,-0.27,-0.2699,-0.25,-0.2495,-0.2489,0,0,0,0,0,0,0,0,0,0,0,0,0,-0.2838,-0.288,-0.2919,-0.2858,-0.2852,-0.281,-0.2807,-0.2804,-0.2702,-0.2701,-0.27,-0.2699,-0.2502,-0.2495,-0.2488,-0.2463,0,0,-0.2467,-0.2463,0,0,0,0,0,0,0,0,-0.2841,-0.2839,-0.2868,-0.2862,-0.2856,-0.2774,-0.2719,-0.2688,-0.2702,-0.2751,-0.2699,-0.2698,-0.2588,-0.2574,-0.2546,-0.2454,-0.2445,-0.2466,-0.2462,-0.2459,-0.2457,0,0,0,0,0,0,0,-0.2844,-0.2842,-0.2868,-0.2867,-0.286,-0.2782,-0.2776,-0.2712,-0.2669,-0.2746,-0.2741,-0.2741,-0.2583,-0.2553,-0.254,-0.2442,-0.2466,-0.246,-0.2455,-0.2453,-0.236,-0.2362,0,0,0,0,0,0,-0.2882,-0.2846,-0.2871,-0.2865,-0.2854,-0.2785,-0.2777,-0.2795,-0.2671,-0.2654,-0.2742,-0.2736,-0.2566,-0.2549,-0.2533,-0.252,-0.2459,-0.2452,-0.2448,-0.2358,-0.2361,-0.2363,0,0,0,0,0,0,-0.2882,-0.2886,-0.2876,-0.2857,-0.2851,-0.2788,-0.2808,-0.2794,-0.2775,-0.267,-0.2649,-0.274,-0.2564,-0.2543,-0.2502,-0.251,-0.2449,-0.2442,-0.2356,-0.2359,-0.2362,-0.2478,0,0,0,0,0,0,-0.2882,-0.2887,-0.2919,-0.2861,-0.2854,-0.2881,-0.2809,-0.2793,-0.278,-0.2772,-0.2662,-0.2641,-0.2562,-0.2514,-0.2495,-0.2499,-0.2437,-0.2354,-0.2358,-0.2361,-0.2472,-0.2484,-0.2495,0,0,0,0,0,-0.2881,-0.2935,-0.2921,-0.2924,-0.2899,-0.2883,-0.2873,-0.2817,-0.2782,-0.2792,-0.2718,-0.2645,-0.2522,-0.251,-0.2487,-0.2489,-0.2352,-0.2357,-0.236,-0.2467,-0.2482,-0.2495,0,0,0,0,0,0,-0.2933,-0.2929,-0.2912,-0.2962,-0.2939,-0.2869,-0.2879,-0.2836,-0.2784,-0.2772,-0.2664,-0.264,-0.2604,-0.2546,-0.2535,-0.2478,-0.2427,-0.2427,-0.2515,-0.2529,-0.254,-0.2502,-0.2431,0,0,0,0,0,-0.2964,-0.2998,-0.2973,-0.3009,-0.301,-0.2946,-0.2935,-0.2896,-0.2842,-0.2818,-0.2744,-0.2668,-0.2602,-0.2568,-0.2504,-0.2476,-0.2387,-0.2467,-0.2479,-0.2489,-0.2446,-0.2359,-0.2357,-0.2376,-0.2376,-0.2376,0,0,-0.299,-0.2994,-0.3011,-0.3022,-0.2995,-0.2984,-0.2936,-0.2932,-0.2904,-0.2804,-0.2759,-0.2705,-0.2606,-0.2569,-0.2549,-0.2521,-0.2444,-0.2494,-0.2503,-0.2453,-0.2363,-0.236,-0.2358,-0.2379,-0.2378,-0.2378,0,0,-0.3038,-0.307,-0.31,-0.3089,-0.3074,-0.3037,-0.3047,-0.2997,-0.2966,-0.2929,-0.2846,-0.2806,-0.2713,-0.2642,-0.259,-0.2632,-0.251,-0.2625,-0.2642,-0.2561,-0.2557,-0.2552,-0.246,-0.2446,-0.263,-0.263,-0.263,0,-0.3065,-0.3086,-0.3105,-0.3114,-0.3087,-0.3066,-0.3049,-0.3031,-0.2969,-0.2923,-0.2935,-0.2783,-0.2736,-0.2638,-0.2664,-0.2652,-0.2576,-0.2597,-0.2572,-0.2565,-0.2559,-0.2464,-0.2448,-0.2636,-0.2635,-0.2635,-0.2634,0,-0.3107,-0.3117,-0.3136,-0.313,-0.3122,-0.3112,-0.3085,-0.3072,-0.3039,-0.2985,-0.2913,-0.2862,-0.2747,-0.2765,-0.2723,-0.2653,-0.2606,-0.2598,-0.253,-0.2563,-0.2463,-0.2444,-0.2645,-0.2643,-0.2641,-0.2639,0,0,-0.314,-0.3158,-0.3153,-0.3107,-0.3113,-0.3078,-0.3083,-0.3023,-0.2953,-0.2958,-0.2853,-0.2825,-0.278,-0.2721,-0.2683,-0.2645,-0.2579,-0.261,-0.2603,-0.2505,-0.2374,-0.2301,-0.2271,-0.2562,-0.2559,-0.2557,-0.233,0,-0.3134,-0.3122,-0.3144,-0.3085,-0.305,-0.3038,-0.3008,-0.2962,-0.2924,-0.2841,-0.2816,-0.2717,-0.2768,-0.2704,-0.2683,-0.2581,-0.2527,-0.2638,-0.2364,-0.2354,-0.2275,-0.2246,-0.2196,-0.1985,-0.231,-0.2307,-0.2304,0,-0.3116,-0.3105,-0.3066,-0.2975,-0.296,-0.2937,-0.2826,-0.2802,-0.2733,-0.2701,-0.2649,-0.26,-0.2536,-0.2586,-0.2443,-0.2506,-0.2435,-0.2392,-0.2381,-0.2241,-0.2243,-0.2,-0.1935,-0.1934,-0.2273,-0.2275,-0.2277,0,-0.3021,-0.3003,-0.2951,-0.2933,-0.2885,-0.2844,-0.2807,-0.2745,-0.268,-0.2601,-0.2533,-0.2463,-0.239,-0.233,-0.227,-0.2328,-0.2102,-0.2162,-0.2026,-0.202,-0.1879,-0.1866,-0.1758,-0.2033,-0.2034,-0.2034,-0.2035,0,-0.2942,-0.2873,-0.2899,-0.2857,-0.275,-0.2755,-0.2634,-0.2597,-0.2531,-0.2413,-0.2441,-0.233,-0.2322,-0.2208,-0.2185,-0.2024,-0.2021,-0.1981,-0.1941,-0.1924,-0.1918,-0.1831,-0.1866,-0.2026,-0.2028,-0.2029,-0.2031,0,-0.2788,-0.2828,-0.2745,-0.2721,-0.27,-0.2616,-0.2536,-0.243,-0.2421,-0.2274,-0.2241,-0.2184,-0.2046,-0.2014,-0.1876,-0.1871,-0.1712,-0.1695,-0.1675,-0.1637,-0.1542,-0.1586,-0.1364,-0.1329,-0.1498,-0.1494,-0.1491,0,-0.2682,-0.2644,-0.2631,-0.2569,-0.255,-0.2461,-0.2372,-0.2364,-0.2278,-0.2163,-0.2067,-0.1931,-0.1811,-0.1619,-0.1564,-0.1451,-0.1514,-0.1348,-0.1465,-0.148,-0.15,-0.1551,-0.1544,-0.1333,-0.1329,-0.1326,-0.1323,0,-0.2449,-0.2482,-0.2429,-0.2349,-0.2267,-0.218,-0.2088,-0.2033,-0.1996,-0.1924,-0.1786,-0.1696,-0.1521,-0.1392,-0.1271,-0.1225,-0.1332,-0.1277,-0.1286,-0.1332,-0.138,-0.1346,-0.1547,-0.1294,-0.1297,-0.1299,-0.1301,-0.1302,-0.2249,-0.2183,-0.2147,-0.2041,-0.1965,-0.187,-0.1772,-0.1727,-0.1631,-0.1488,-0.1528,-0.1368,-0.1295,-0.1131,-0.1072,-0.0989,-0.1069,-0.1014,-0.1052,-0.1092,-0.1095,-0.1225,-0.0947,-0.0948,-0.0948,-0.0949,-0.0949,0,-0.1945,-0.1906,-0.1807,-0.17,-0.1555,-0.1612,-0.1522,-0.1445,-0.1331,-0.1226,-0.1149,-0.1049,-0.0962,-0.091,-0.0848,-0.0808,-0.0838,-0.0807,-0.0892,-0.0888,-0.097,-0.1004,-0.0734,-0.0734,-0.0735,-0.0735,-0.0735,-0.0735,-0.1779,-0.1615,-0.1596,-0.1311,-0.1245,-0.108,-0.1038,-0.1003,-0.0942,-0.0778,-0.0677,-0.0627,-0.0698,-0.0805,-0.0777,-0.0747,-0.0769,-0.0727,-0.0756,-0.0871,-0.0896,-0.092,-0.0961,-0.0686,-0.0686,-0.0661,-0.0661,-0.0661]},{"header":{"parameterUnit":"m.s-1","parameterCategory":2,"la1":30.2991,"la2":30.254,"lo1":-89.0895,"lo2":-89.0444,"dy":0.0017,"dx":0.0017,"nx":28,"ny":28,"refTime":"2023-10-22T09:00:00:Z","depth":"0","parameterNumber":3,"parameterNumberName":"V-component_of_CURRENTS"},"data":[0,0,0,0,0,0,0,0,0,0,0,0,0,0,0,0,0,0,0,0,0,0,0,0,0,0,0,0,0,0,0,0,0,0,0,0,0,0,0,0,0,0,0,0,0,0,0,0,0,0,0,0,0,0,0,0,0,0,0.0775,0.0776,0,0.0901,0.0902,0.0903,0.0945,0.0945,0.0944,0.0944,0.1068,0.1072,0.1076,0,0,0,0,0,0,0,0,0,0,0,0,0,0.0641,0.0643,0.0775,0.0777,0.0778,0.09,0.0902,0.0904,0.0945,0.0945,0.0944,0.0944,0.1067,0.1072,0.1076,0,0,0,0,0,0,0,0,0,0,0,0,0,0.0725,0.0643,0.0775,0.0815,0.082,0.09,0.0902,0.0904,0.0945,0.0945,0.0944,0.0944,0.1066,0.1071,0.1077,0.1123,0,0,0.1094,0.1096,0,0,0,0,0,0,0,0,0.072,0.0729,0.0807,0.0812,0.0818,0.0908,0.0901,0.0978,0.0946,0.0896,0.0944,0.0943,0.1016,0.1025,0.1049,0.1129,0.1135,0.1094,0.1098,0.11,0.1101,0,0,0,0,0,0,0,0.0714,0.0725,0.0823,0.0809,0.0816,0.085,0.0861,0.0916,0.0957,0.0901,0.0904,0.092,0.1018,0.1043,0.1052,0.1136,0.1094,0.1099,0.1102,0.1105,0.1274,0.1275,0,0,0,0,0,0,0.0698,0.0719,0.082,0.0827,0.0768,0.0853,0.0865,0.0878,0.0957,0.0968,0.0921,0.0922,0.1034,0.1046,0.1057,0.1122,0.11,0.1105,0.1108,0.1272,0.1274,0.1275,0,0,0,0,0,0,0.0695,0.0706,0.0814,0.0777,0.0793,0.0856,0.0871,0.0881,0.0904,0.0972,0.0983,0.0932,0.1034,0.1049,0.1108,0.1126,0.1108,0.1113,0.1271,0.1273,0.1274,0.1249,0,0,0,0,0,0,0.069,0.0704,0.0705,0.0776,0.0795,0.0851,0.0872,0.0884,0.0916,0.0918,0.0986,0.0997,0.1035,0.1099,0.1113,0.1134,0.1117,0.127,0.1272,0.1274,0.1248,0.125,0.1251,0,0,0,0,0,0.0685,0.0679,0.0704,0.0716,0.0795,0.0852,0.0864,0.0906,0.0916,0.0924,0.0977,0.0995,0.1123,0.1105,0.1121,0.1143,0.1269,0.1271,0.1274,0.1248,0.1249,0.1251,0,0,0,0,0,0,0.0608,0.0685,0.0713,0.0728,0.0784,0.0859,0.0865,0.0904,0.0953,0.0949,0.1013,0.1029,0.1086,0.1121,0.1099,0.1199,0.1198,0.1204,0.1173,0.1175,0.1176,0.1123,0.1122,0,0,0,0,0,0.0597,0.0614,0.0697,0.0704,0.0729,0.08,0.0827,0.0859,0.0915,0.0935,0.0994,0.1052,0.1113,0.1145,0.1197,0.1255,0.1261,0.1281,0.1282,0.1283,0.1252,0.128,0.128,0.1284,0.1284,0.1284,0,0,0.0563,0.0611,0.0617,0.069,0.0731,0.0767,0.0813,0.0844,0.0878,0.0942,0.0996,0.1057,0.1128,0.119,0.122,0.1221,0.129,0.1286,0.1286,0.1254,0.1282,0.1282,0.1281,0.1285,0.1285,0.1285,0,0,0.0514,0.0552,0.0559,0.0609,0.0677,0.0727,0.0736,0.0819,0.0855,0.0926,0.0979,0.1049,0.1143,0.1201,0.1242,0.1283,0.1292,0.1303,0.1272,0.13,0.1299,0.1298,0.1319,0.132,0.1307,0.1307,0.1307,0,0.0468,0.05,0.0566,0.0596,0.0626,0.0706,0.0722,0.0779,0.0873,0.0901,0.0932,0.1073,0.1149,0.1218,0.1241,0.1285,0.1287,0.126,0.1298,0.1297,0.1296,0.1318,0.132,0.1306,0.1306,0.1306,0.1306,0,0.0442,0.0469,0.0472,0.054,0.0581,0.0601,0.0694,0.0734,0.0795,0.086,0.094,0.1048,0.1122,0.1178,0.1228,0.1269,0.1268,0.1291,0.1284,0.1294,0.1318,0.1319,0.1305,0.1305,0.1305,0.1306,0,0,0.0316,0.0432,0.0429,0.046,0.0552,0.0581,0.0629,0.0699,0.0723,0.0828,0.0867,0.1006,0.1052,0.1099,0.1179,0.1222,0.1257,0.1246,0.1249,0.1248,0.1298,0.1228,0.1223,0.1274,0.1273,0.1273,0.1321,0,0.0268,0.031,0.0383,0.0409,0.0434,0.0521,0.0564,0.0636,0.071,0.077,0.088,0.0957,0.1027,0.1073,0.1121,0.1232,0.1256,0.124,0.1304,0.1306,0.1226,0.1221,0.1183,0.1214,0.1323,0.1323,0.1324,0,0.0207,0.0251,0.0277,0.036,0.0376,0.0405,0.0465,0.0522,0.0621,0.068,0.0751,0.0839,0.0942,0.0995,0.1131,0.1109,0.1179,0.1256,0.126,0.1191,0.1236,0.1222,0.1213,0.1301,0.1326,0.1326,0.1326,0,0.0082,0.0164,0.0182,0.0212,0.0323,0.0337,0.0387,0.0479,0.0545,0.0617,0.0673,0.0765,0.0861,0.0936,0.1106,0.111,0.1236,0.1272,0.1262,0.1259,0.1235,0.1228,0.1295,0.1318,0.1318,0.1318,0.1317,0,-0.0005,-0.0002,0.0128,0.0135,0.0164,0.0254,0.0295,0.0349,0.0453,0.0543,0.0617,0.0698,0.085,0.0958,0.106,0.1161,0.1199,0.1231,0.1256,0.1228,0.122,0.1301,0.1344,0.1319,0.1319,0.1319,0.1318,0,-0.0143,-0.0068,-0.0027,0.0083,0.0112,0.0134,0.027,0.0337,0.0398,0.0511,0.0543,0.0677,0.0792,0.0922,0.1079,0.1128,0.1244,0.124,0.1187,0.1202,0.1227,0.1269,0.1295,0.1337,0.1211,0.121,0.1208,0,-0.0212,-0.0204,-0.0067,-0.0011,0.0041,0.0108,0.0197,0.0298,0.0393,0.0517,0.0589,0.069,0.0771,0.0922,0.1013,0.1107,0.1212,0.1131,0.1123,0.1193,0.1262,0.1289,0.1326,0.1109,0.1107,0.1105,0.1104,0,-0.0305,-0.024,-0.0158,-0.0048,0.0047,0.0167,0.0283,0.0345,0.0494,0.0568,0.0671,0.0705,0.0778,0.0849,0.093,0.0988,0.1147,0.1094,0.12,0.1185,0.1188,0.1252,0.112,0.1089,0.109,0.1091,0.1092,0.1093,-0.0326,-0.0266,-0.0119,-0.0013,0.0096,0.0259,0.0337,0.0484,0.0617,0.0754,0.0753,0.083,0.0782,0.0855,0.0921,0.1011,0.1034,0.1062,0.1111,0.1135,0.1147,0.0948,0.0918,0.0918,0.0918,0.0919,0.0919,0,-0.0239,-0.0154,-0.008,0.0109,0.0246,0.0286,0.0448,0.0526,0.068,0.0794,0.0858,0.0941,0.0932,0.0952,0.0999,0.106,0.1102,0.1114,0.1188,0.1231,0.1092,0.1059,0.1015,0.1015,0.1015,0.1015,0.1015,0.1015,-0.0167,-0.0028,0.0026,0.0253,0.0352,0.0538,0.062,0.0666,0.0724,0.0898,0.1032,0.1078,0.111,0.1129,0.1208,0.1209,0.134,0.1269,0.1379,0.1331,0.1333,0.1334,0.1315,0.1326,0.1327,0.1506,0.1508,0.1509]}],[{"header":{"parameterUnit":"m.s-1","parameterCategory":2,"la1":30.2991,"la2":30.254,"lo1":-89.0895,"lo2":-89.0444,"dy":0.0017,"dx":0.0017,"nx":28,"ny":28,"refTime":"2023-10-22T09:00:00:Z","depth":"2","parameterNumber":2,"parameterNumberName":"U-component_of_CURRENTS"},"data":[0,0,0,0,0,0,0,0,0,0,0,0,0,0,0,0,0,0,0,0,0,0,0,0,0,0,0,0,0,0,0,0,0,0,0,0,0,0,0,0,0,0,0,0,0,0,0,0,0,0,0,0,0,0,0,0,0,0,-0.2339,-0.234,0,-0.2319,-0.2318,-0.2317,-0.2244,-0.2243,-0.2242,-0.2242,-0.2133,-0.2131,-0.2129,0,0,0,0,0,0,0,0,0,0,0,0,0,-0.209,-0.2096,-0.2339,-0.234,-0.234,-0.2319,-0.2318,-0.2317,-0.2244,-0.2243,-0.2242,-0.2241,-0.2134,-0.2131,-0.2129,0,0,0,0,0,0,0,0,0,0,0,0,0,-0.214,-0.2097,-0.2339,-0.2307,-0.2305,-0.2319,-0.2318,-0.2316,-0.2245,-0.2243,-0.2242,-0.2241,-0.2135,-0.2132,-0.2129,-0.2138,0,0,-0.212,-0.2118,0,0,0,0,0,0,0,0,-0.2137,-0.2148,-0.2311,-0.2309,-0.2307,-0.2289,-0.219,-0.2255,-0.2245,-0.2259,-0.2242,-0.224,-0.2183,-0.2176,-0.2166,-0.2133,-0.2129,-0.2119,-0.2117,-0.2116,-0.2115,0,0,0,0,0,0,0,-0.2134,-0.2148,-0.2323,-0.2312,-0.2309,-0.2217,-0.2223,-0.2201,-0.2222,-0.2258,-0.2255,-0.2265,-0.218,-0.2169,-0.2163,-0.2127,-0.2119,-0.2117,-0.2115,-0.2114,-0.2045,-0.2045,0,0,0,0,0,0,-0.2167,-0.2147,-0.2324,-0.2323,-0.2225,-0.2224,-0.2231,-0.229,-0.2224,-0.2216,-0.2266,-0.2262,-0.2175,-0.2166,-0.2158,-0.2131,-0.2116,-0.2113,-0.2112,-0.2045,-0.2045,-0.2045,0,0,0,0,0,0,-0.2163,-0.2185,-0.2325,-0.2236,-0.2248,-0.2232,-0.2297,-0.2291,-0.2278,-0.2233,-0.222,-0.2261,-0.2173,-0.2163,-0.2132,-0.2127,-0.2112,-0.2109,-0.2045,-0.2045,-0.2045,-0.2098,0,0,0,0,0,0,-0.2157,-0.2185,-0.2238,-0.2241,-0.2255,-0.2342,-0.2299,-0.2291,-0.2291,-0.2284,-0.2225,-0.2213,-0.2171,-0.2136,-0.2129,-0.2123,-0.2107,-0.2045,-0.2045,-0.2045,-0.2096,-0.21,-0.2103,0,0,0,0,0,-0.2148,-0.2221,-0.2242,-0.2262,-0.2332,-0.2344,-0.2341,-0.2316,-0.2292,-0.2296,-0.2246,-0.2215,-0.213,-0.2135,-0.2125,-0.2118,-0.2045,-0.2045,-0.2045,-0.2095,-0.2099,-0.2103,0,0,0,0,0,0,-0.2117,-0.2222,-0.2243,-0.2341,-0.235,-0.2334,-0.2344,-0.2325,-0.2291,-0.228,-0.2221,-0.2207,-0.2176,-0.2145,-0.2151,-0.2098,-0.208,-0.2079,-0.2121,-0.2125,-0.2128,-0.2138,-0.2104,0,0,0,0,0,-0.2149,-0.2253,-0.2289,-0.2367,-0.2376,-0.2362,-0.2365,-0.235,-0.2324,-0.2307,-0.2262,-0.2212,-0.2171,-0.2147,-0.2111,-0.209,-0.2042,-0.2077,-0.208,-0.2083,-0.2085,-0.2035,-0.2034,-0.2045,-0.2045,-0.2045,0,0,-0.217,-0.2232,-0.2296,-0.237,-0.2373,-0.2382,-0.2358,-0.2371,-0.236,-0.2302,-0.2268,-0.2228,-0.217,-0.2138,-0.2121,-0.2109,-0.2047,-0.2083,-0.2086,-0.2086,-0.2035,-0.2034,-0.2033,-0.2045,-0.2045,-0.2045,0,0,-0.22,-0.2304,-0.2365,-0.2395,-0.2422,-0.2409,-0.2417,-0.2404,-0.2383,-0.2367,-0.2306,-0.2264,-0.2217,-0.2159,-0.2127,-0.213,-0.2071,-0.2121,-0.214,-0.2092,-0.2091,-0.2089,-0.1993,-0.1983,-0.2118,-0.2118,-0.2118,0,-0.221,-0.2269,-0.237,-0.2406,-0.2428,-0.2421,-0.2432,-0.2419,-0.239,-0.2372,-0.2365,-0.2278,-0.2224,-0.2166,-0.2155,-0.2136,-0.209,-0.2131,-0.2097,-0.2094,-0.2092,-0.1994,-0.1982,-0.212,-0.212,-0.212,-0.2119,0,-0.2247,-0.2291,-0.2317,-0.2379,-0.2446,-0.2434,-0.2468,-0.2457,-0.2437,-0.2417,-0.2379,-0.2318,-0.2252,-0.2237,-0.2194,-0.2143,-0.2107,-0.2112,-0.209,-0.2094,-0.199,-0.1977,-0.2124,-0.2123,-0.2122,-0.2121,0,0,-0.2255,-0.2316,-0.2326,-0.2335,-0.2413,-0.2459,-0.2476,-0.246,-0.2422,-0.243,-0.2377,-0.2335,-0.2301,-0.2261,-0.2204,-0.217,-0.2088,-0.2136,-0.2132,-0.2044,-0.1947,-0.1871,-0.1848,-0.2098,-0.2096,-0.2095,-0.187,0,-0.2198,-0.2225,-0.2303,-0.233,-0.2335,-0.2402,-0.2416,-0.2454,-0.2429,-0.2373,-0.2356,-0.2283,-0.2309,-0.2245,-0.223,-0.2107,-0.2061,-0.2146,-0.1953,-0.1945,-0.1882,-0.1833,-0.1758,-0.1549,-0.1856,-0.1854,-0.1852,0,-0.2145,-0.2193,-0.2217,-0.2265,-0.2284,-0.2318,-0.2357,-0.2376,-0.2347,-0.2325,-0.2308,-0.2259,-0.2187,-0.2206,-0.2077,-0.2133,-0.2045,-0.1984,-0.1973,-0.1879,-0.1845,-0.16,-0.1512,-0.1828,-0.183,-0.1832,-0.1834,0,-0.2056,-0.2091,-0.2105,-0.2147,-0.2249,-0.2275,-0.2302,-0.2347,-0.2324,-0.2275,-0.2208,-0.2181,-0.2083,-0.205,-0.1934,-0.1985,-0.1784,-0.1824,-0.1683,-0.1674,-0.1558,-0.1542,-0.1739,-0.1739,-0.174,-0.1741,-0.1741,0,-0.194,-0.1954,-0.205,-0.2092,-0.21,-0.2246,-0.2228,-0.2231,-0.2211,-0.2153,-0.2163,-0.206,-0.2042,-0.1928,-0.1887,-0.1723,-0.174,-0.1661,-0.1613,-0.1569,-0.1558,-0.1777,-0.1784,-0.1732,-0.1734,-0.1736,-0.1737,0,-0.1864,-0.1901,-0.1929,-0.2036,-0.2057,-0.2109,-0.2151,-0.2094,-0.2117,-0.2024,-0.199,-0.191,-0.1776,-0.1738,-0.1605,-0.1591,-0.1482,-0.1422,-0.135,-0.13,-0.1412,-0.1425,-0.1231,-0.1226,-0.1222,-0.1219,-0.1216,0,-0.1799,-0.1806,-0.1904,-0.19,-0.1941,-0.2003,-0.1978,-0.2031,-0.1984,-0.192,-0.183,-0.1684,-0.1553,-0.135,-0.1303,-0.1192,-0.1301,-0.1062,-0.1165,-0.1388,-0.1361,-0.138,-0.1398,-0.1004,-0.1,-0.0997,-0.0994,0,-0.168,-0.1723,-0.1766,-0.1773,-0.1762,-0.1783,-0.1765,-0.1729,-0.1778,-0.1693,-0.1554,-0.1447,-0.1258,-0.1105,-0.0989,-0.0945,-0.1092,-0.0987,-0.1199,-0.117,-0.1164,-0.1142,-0.1168,-0.0963,-0.0966,-0.0969,-0.097,-0.0971,-0.1569,-0.1555,-0.1567,-0.158,-0.157,-0.1548,-0.1478,-0.1468,-0.1414,-0.1282,-0.1313,-0.1129,-0.107,-0.0835,-0.0769,-0.0737,-0.0819,-0.0822,-0.0837,-0.0854,-0.0894,-0.0884,-0.0634,-0.0635,-0.0636,-0.0637,-0.0638,0,-0.1384,-0.1373,-0.1335,-0.1352,-0.1277,-0.1358,-0.1291,-0.1192,-0.1074,-0.1043,-0.0933,-0.08,-0.0694,-0.0653,-0.0547,-0.0521,-0.0571,-0.0517,-0.0602,-0.063,-0.0656,-0.0692,-0.0375,-0.0374,-0.0374,-0.0373,0,0,-0.127,-0.118,-0.1173,-0.1038,-0.1056,-0.0922,-0.086,-0.075,-0.0683,-0.0573,-0.0527,-0.0565,-0.0591,-0.0474,-0.0451,-0.0387,-0.0504,-0.0367,-0.0573,-0.0697,-0.0722,-0.0819,-0.0903,0,0,0,0,0]},{"header":{"parameterUnit":"m.s-1","parameterCategory":2,"la1":30.2991,"la2":30.254,"lo1":-89.0895,"lo2":-89.0444,"dy":0.0017,"dx":0.0017,"nx":28,"ny":28,"refTime":"2023-10-22T09:00:00:Z","depth":"2","parameterNumber":3,"parameterNumberName":"V-component_of_CURRENTS"},"data":[0,0,0,0,0,0,0,0,0,0,0,0,0,0,0,0,0,0,0,0,0,0,0,0,0,0,0,0,0,0,0,0,0,0,0,0,0,0,0,0,0,0,0,0,0,0,0,0,0,0,0,0,0,0,0,0,0,0,-0.0887,-0.0886,0,-0.0816,-0.0815,-0.0814,-0.079,-0.079,-0.0791,-0.0792,-0.0664,-0.066,-0.0656,0,0,0,0,0,0,0,0,0,0,0,0,0,-0.0924,-0.0923,-0.0887,-0.0886,-0.0886,-0.0816,-0.0815,-0.0813,-0.079,-0.0791,-0.0791,-0.0792,-0.0665,-0.066,-0.0656,0,0,0,0,0,0,0,0,0,0,0,0,0,-0.0881,-0.0923,-0.0887,-0.0869,-0.0867,-0.0816,-0.0815,-0.0813,-0.0789,-0.0791,-0.0792,-0.0793,-0.0667,-0.0661,-0.0655,-0.0595,0,0,-0.0636,-0.0633,0,0,0,0,0,0,0,0,-0.0884,-0.088,-0.0872,-0.087,-0.0868,-0.0817,-0.0781,-0.0739,-0.0789,-0.0814,-0.0792,-0.0793,-0.0712,-0.0702,-0.0681,-0.0589,-0.0583,-0.0636,-0.0632,-0.0629,-0.0627,0,0,0,0,0,0,0,-0.0887,-0.0882,-0.0854,-0.0872,-0.0869,-0.0839,-0.0834,-0.0772,-0.0753,-0.0812,-0.0811,-0.0811,-0.071,-0.0687,-0.0677,-0.0582,-0.0636,-0.063,-0.0627,-0.0624,-0.0383,-0.0381,0,0,0,0,0,0,-0.0908,-0.0885,-0.0856,-0.0852,-0.0884,-0.0838,-0.0832,-0.0828,-0.0755,-0.0746,-0.081,-0.081,-0.0696,-0.0684,-0.0673,-0.0539,-0.0629,-0.0624,-0.062,-0.0386,-0.0383,-0.038,0,0,0,0,0,0,-0.0909,-0.0906,-0.0859,-0.0871,-0.0864,-0.0837,-0.0832,-0.0827,-0.0799,-0.0755,-0.0745,-0.0788,-0.0697,-0.0681,-0.0601,-0.0536,-0.0621,-0.0615,-0.0389,-0.0385,-0.0381,-0.0308,0,0,0,0,0,0,-0.091,-0.0907,-0.0902,-0.0872,-0.0864,-0.0821,-0.0831,-0.0824,-0.0799,-0.0798,-0.0732,-0.0722,-0.0697,-0.061,-0.0595,-0.0529,-0.061,-0.0393,-0.0387,-0.0382,-0.0314,-0.0302,-0.0292,0,0,0,0,0,-0.0912,-0.0906,-0.0902,-0.0899,-0.0862,-0.082,-0.0811,-0.0793,-0.0797,-0.0774,-0.0726,-0.0724,-0.0567,-0.0603,-0.0585,-0.0517,-0.0395,-0.0389,-0.0383,-0.0319,-0.0304,-0.0292,0,0,0,0,0,0,-0.0921,-0.0902,-0.0898,-0.0887,-0.0854,-0.0818,-0.0798,-0.0786,-0.073,-0.0726,-0.0688,-0.0672,-0.058,-0.0558,-0.0598,-0.0433,-0.048,-0.047,-0.0437,-0.0423,-0.0412,-0.0383,-0.0605,0,0,0,0,0,-0.0922,-0.091,-0.0884,-0.0871,-0.0856,-0.0823,-0.0804,-0.0788,-0.0743,-0.0721,-0.0664,-0.0604,-0.0539,-0.0493,-0.0437,-0.034,-0.032,-0.0285,-0.0274,-0.0265,-0.0228,-0.0117,-0.0092,-0.036,-0.036,-0.036,0,0,-0.0925,-0.0911,-0.0906,-0.0872,-0.0845,-0.08,-0.0812,-0.0776,-0.0725,-0.0712,-0.061,-0.0565,-0.0508,-0.0404,-0.0359,-0.0376,-0.0192,-0.0257,-0.025,-0.0217,-0.0108,-0.0082,-0.0058,-0.0356,-0.0356,-0.0357,0,0,-0.092,-0.0907,-0.0893,-0.0854,-0.0814,-0.0783,-0.0772,-0.0714,-0.0677,-0.0586,-0.0559,-0.046,-0.0372,-0.029,-0.025,-0.0137,-0.0146,-0.0138,-0.0039,0.0068,0.0091,0.0112,0.0105,0.0126,-0.0121,-0.012,-0.012,0,-0.0924,-0.0913,-0.0879,-0.0839,-0.0788,-0.0773,-0.0714,-0.0676,-0.0592,-0.0526,-0.0547,-0.0343,-0.0302,-0.0144,-0.011,-0.0105,-0.0095,-0.01,0.0084,0.0105,0.0126,0.0114,0.0136,-0.0116,-0.0117,-0.0117,-0.0118,0,-0.0898,-0.0885,-0.0868,-0.0807,-0.072,-0.0693,-0.0608,-0.0555,-0.0508,-0.0435,-0.0276,-0.0199,-0.0072,-0.0044,-0.0044,0.0133,0.0069,0.0072,0.0048,0.0157,0.0137,0.0158,-0.011,-0.0112,-0.0113,-0.0114,0,0,-0.0912,-0.0875,-0.0859,-0.0823,-0.0707,-0.0635,-0.0536,-0.0421,-0.0353,-0.024,-0.0111,0.004,0.0096,0.0148,0.0182,0.0287,0.0407,0.0242,0.0245,0.0229,0.0562,0.0444,0.0453,0.0438,0.0443,0.0448,0.0464,0,-0.0914,-0.0865,-0.0804,-0.0706,-0.0658,-0.0568,-0.0453,-0.0318,-0.0236,-0.0118,0.0014,0.0137,0.0161,0.0214,0.0339,0.038,0.0476,0.0397,0.0465,0.0465,0.0347,0.0482,0.0441,0.0449,0.0484,0.0488,0.049,0,-0.0883,-0.0857,-0.0776,-0.0653,-0.0611,-0.0535,-0.0335,-0.0225,-0.0055,0.0008,0.0172,0.0242,0.0421,0.0402,0.0603,0.054,0.0577,0.0608,0.061,0.0505,0.0392,0.0362,0.0486,0.0524,0.0522,0.0519,0.0517,0,-0.0863,-0.0812,-0.0753,-0.0709,-0.0566,-0.0494,-0.0385,-0.0177,-0.0081,0.0091,0.0134,0.0368,0.0428,0.0583,0.0623,0.063,0.0778,0.0792,0.0727,0.0713,0.07,0.0676,0.097,0.0969,0.0969,0.0969,0.0969,0,-0.0856,-0.081,-0.0775,-0.0735,-0.0635,-0.0463,-0.0304,-0.022,-0.0052,0.0062,0.0207,0.0265,0.048,0.0561,0.0649,0.0717,0.0805,0.078,0.0754,0.0711,0.0689,0.0782,0.076,0.097,0.097,0.097,0.097,0,-0.0817,-0.0816,-0.0767,-0.0672,-0.0634,-0.0524,-0.0329,-0.0237,-0.0093,0.0026,0.0068,0.0198,0.0305,0.0449,0.063,0.0692,0.0797,0.0791,0.0657,0.0618,0.0652,0.0634,0.0788,0.0785,0.0783,0.0781,0.0779,0,-0.0813,-0.0788,-0.0731,-0.071,-0.069,-0.0534,-0.0437,-0.0272,-0.0219,-0.0039,-0.0048,0.0084,0.0161,0.0337,0.0475,0.0617,0.0678,0.0639,0.0703,0.0698,0.0656,0.0641,0.0627,0.0679,0.0677,0.0675,0.0673,0,-0.0805,-0.0792,-0.0759,-0.0719,-0.0674,-0.0608,-0.0516,-0.0502,-0.0314,-0.024,-0.0189,-0.0093,0.0077,0.0227,0.0374,0.0456,0.0631,0.0599,0.0702,0.0709,0.0592,0.0549,0.0541,0.0655,0.0657,0.0658,0.0659,0.066,-0.0807,-0.0805,-0.0776,-0.0733,-0.0688,-0.0724,-0.0697,-0.066,-0.0593,-0.0504,-0.0381,-0.0223,0.0004,0.0194,0.0324,0.0436,0.0474,0.0552,0.0561,0.0572,0.0536,0.042,0.0437,0.0437,0.0438,0.0438,0.0438,0,-0.0837,-0.0812,-0.0783,-0.0781,-0.0777,-0.0736,-0.076,-0.0736,-0.072,-0.0621,-0.0512,-0.0275,-0.01,0.0125,0.0286,0.0407,0.0451,0.0429,0.05,0.0514,0.0527,0.0494,0.0381,0.0382,0.0382,0.0382,0,0,-0.0847,-0.0853,-0.0847,-0.0875,-0.0848,-0.0878,-0.0912,-0.0886,-0.0823,-0.0712,-0.058,-0.0414,-0.0093,0.0023,0.0194,0.0294,0.0367,0.0286,0.0313,0.0388,0.0401,0.057,0.0528,0,0,0,0,0]}],[{"header":{"parameterUnit":"m.s-1","parameterCategory":2,"la1":30.2991,"la2":30.254,"lo1":-89.0895,"lo2":-89.0444,"dy":0.0017,"dx":0.0017,"nx":28,"ny":28,"refTime":"2023-10-22T09:00:00:Z","depth":"4","parameterNumber":2,"parameterNumberName":"U-component_of_CURRENTS"},"data":[0,0,0,0,0,0,0,0,0,0,0,0,0,0,0,0,0,0,0,0,0,0,0,0,0,0,0,0,0,0,0,0,0,0,0,0,0,0,0,0,0,0,0,0,0,0,0,0,0,0,0,0,0,0,0,0,0,0,-0.062,-0.062,0,-0.0648,-0.0648,-0.0648,-0.0644,-0.0643,-0.0643,-0.0643,-0.0637,-0.0637,-0.0637,0,0,0,0,0,0,0,0,0,0,0,0,0,-0.0602,-0.0602,-0.062,-0.062,-0.0621,-0.0648,-0.0648,-0.0648,-0.0644,-0.0643,-0.0643,-0.0642,-0.0637,-0.0637,-0.0637,0,0,0,0,0,0,0,0,0,0,0,0,0,-0.0616,-0.0602,-0.062,-0.0623,-0.0624,-0.0648,-0.0648,-0.0648,-0.0644,-0.0643,-0.0643,-0.0642,-0.0637,-0.0637,-0.0637,-0.0648,0,0,-0.0638,-0.0638,0,0,0,0,0,0,0,0,-0.0615,-0.0617,-0.0622,-0.0623,-0.0624,-0.0643,-0.064,-0.0647,-0.0644,-0.0634,-0.0643,-0.0642,-0.0637,-0.0637,-0.0642,-0.0648,-0.0648,-0.0638,-0.0638,-0.0638,-0.0638,0,0,0,0,0,0,0,-0.0614,-0.0616,-0.0629,-0.0623,-0.0624,-0.0637,-0.0638,-0.0641,-0.0636,-0.0635,-0.0635,-0.0641,-0.0637,-0.0642,-0.0642,-0.0648,-0.0638,-0.0638,-0.0638,-0.0638,-0.0733,-0.0735,0,0,0,0,0,0,-0.0613,-0.0614,-0.0628,-0.063,-0.062,-0.0637,-0.0638,-0.0636,-0.0637,-0.0638,-0.0642,-0.0641,-0.0641,-0.0641,-0.0641,-0.0687,-0.0638,-0.0638,-0.0638,-0.0731,-0.0733,-0.0736,0,0,0,0,0,0,-0.0612,-0.0613,-0.0627,-0.0625,-0.0628,-0.0638,-0.0636,-0.0637,-0.0651,-0.0643,-0.0642,-0.0655,-0.0641,-0.0641,-0.0664,-0.0685,-0.0638,-0.0638,-0.0728,-0.0731,-0.0735,-0.0757,0,0,0,0,0,0,-0.0611,-0.0613,-0.0614,-0.0624,-0.0628,-0.0636,-0.0636,-0.0638,-0.0655,-0.0655,-0.0654,-0.0652,-0.0641,-0.0664,-0.0664,-0.0685,-0.0639,-0.0725,-0.0729,-0.0734,-0.0754,-0.0761,-0.0768,0,0,0,0,0,-0.061,-0.0607,-0.0614,-0.0616,-0.0628,-0.0636,-0.0639,-0.0644,-0.0657,-0.0657,-0.0675,-0.0653,-0.0693,-0.0666,-0.0666,-0.0686,-0.0723,-0.0728,-0.0733,-0.075,-0.076,-0.0768,0,0,0,0,0,0,-0.0599,-0.0607,-0.0614,-0.0614,-0.0625,-0.0636,-0.0642,-0.0655,-0.067,-0.0668,-0.0674,-0.0674,-0.0712,-0.0703,-0.0673,-0.0734,-0.0708,-0.0714,-0.0722,-0.073,-0.0737,-0.0738,-0.0639,0,0,0,0,0,-0.0599,-0.0599,-0.0612,-0.0613,-0.062,-0.0638,-0.0647,-0.0644,-0.066,-0.0666,-0.0687,-0.0707,-0.0735,-0.0733,-0.0756,-0.0772,-0.0754,-0.0793,-0.08,-0.0806,-0.0811,-0.0826,-0.0833,-0.0754,-0.0754,-0.0754,0,0,-0.0598,-0.0602,-0.0603,-0.0612,-0.0623,-0.0632,-0.0641,-0.0644,-0.0663,-0.0663,-0.071,-0.0737,-0.0752,-0.0784,-0.0799,-0.0772,-0.0814,-0.0813,-0.0817,-0.0819,-0.0832,-0.0839,-0.0846,-0.0757,-0.0757,-0.0756,0,0,-0.0592,-0.0598,-0.0598,-0.0607,-0.0616,-0.0625,-0.0631,-0.0656,-0.0679,-0.0724,-0.0742,-0.0782,-0.0824,-0.0834,-0.0845,-0.0907,-0.0866,-0.0921,-0.0933,-0.0946,-0.0952,-0.0957,-0.0907,-0.0908,-0.0905,-0.0905,-0.0906,0,-0.0591,-0.0592,-0.06,-0.0605,-0.0617,-0.0628,-0.0635,-0.0659,-0.0695,-0.0719,-0.0743,-0.0833,-0.0852,-0.0878,-0.0915,-0.0919,-0.0902,-0.0889,-0.0952,-0.0957,-0.0961,-0.0909,-0.0909,-0.0907,-0.0907,-0.0907,-0.0907,0,-0.0571,-0.0592,-0.0594,-0.0605,-0.0618,-0.0619,-0.065,-0.0677,-0.0723,-0.0752,-0.0821,-0.0863,-0.0913,-0.0932,-0.0948,-0.099,-0.0956,-0.0969,-0.0918,-0.097,-0.0912,-0.0912,-0.091,-0.0909,-0.0909,-0.0908,0,0,-0.0531,-0.0572,-0.0576,-0.0599,-0.0615,-0.0623,-0.0659,-0.0692,-0.0713,-0.0782,-0.0828,-0.0913,-0.0945,-0.0964,-0.0983,-0.0997,-0.1019,-0.1003,-0.1003,-0.0931,-0.1004,-0.0942,-0.0934,-0.1041,-0.1043,-0.1043,-0.0935,0,-0.052,-0.0538,-0.0557,-0.059,-0.0612,-0.0635,-0.0668,-0.0696,-0.0741,-0.0788,-0.0842,-0.0901,-0.0951,-0.098,-0.1011,-0.1027,-0.1026,-0.1044,-0.0985,-0.0982,-0.0904,-0.0936,-0.1047,-0.0935,-0.0935,-0.0934,-0.0934,0,-0.0506,-0.052,-0.0548,-0.0605,-0.0613,-0.0629,-0.0667,-0.0698,-0.0746,-0.0781,-0.0837,-0.0887,-0.094,-0.0983,-0.1015,-0.1025,-0.1031,-0.1029,-0.1025,-0.0963,-0.0921,-0.0886,-0.0933,-0.0933,-0.0933,-0.0933,-0.0933,0,-0.0491,-0.0531,-0.0557,-0.0569,-0.0613,-0.0635,-0.0661,-0.07,-0.0723,-0.078,-0.0786,-0.0864,-0.0892,-0.0941,-0.0981,-0.1004,-0.0983,-0.1003,-0.0932,-0.0924,-0.0997,-0.0993,-0.1023,-0.1023,-0.1023,-0.1024,-0.1024,0,-0.0487,-0.0517,-0.0554,-0.0566,-0.0582,-0.063,-0.0651,-0.0677,-0.0715,-0.0728,-0.079,-0.0802,-0.0895,-0.0906,-0.095,-0.0927,-0.0959,-0.0933,-0.0907,-0.1004,-0.1004,-0.0992,-0.099,-0.102,-0.102,-0.1021,-0.1022,0,-0.0489,-0.0517,-0.0547,-0.0578,-0.0585,-0.0603,-0.0634,-0.0646,-0.0674,-0.0688,-0.071,-0.0752,-0.0766,-0.0804,-0.0845,-0.0855,-0.0857,-0.0837,-0.0886,-0.0864,-0.0786,-0.0787,-0.0742,-0.0739,-0.0737,-0.0735,-0.0733,0,-0.0496,-0.0511,-0.0532,-0.0534,-0.0551,-0.0574,-0.0581,-0.0625,-0.0629,-0.0656,-0.0651,-0.067,-0.0701,-0.0664,-0.0732,-0.0741,-0.0762,-0.073,-0.0826,-0.0785,-0.0764,-0.0769,-0.0773,-0.073,-0.0729,-0.0728,-0.0728,0,-0.049,-0.0501,-0.0506,-0.0492,-0.0503,-0.0505,-0.0523,-0.052,-0.0569,-0.0592,-0.0596,-0.062,-0.0597,-0.0637,-0.0622,-0.0654,-0.0745,-0.0707,-0.0713,-0.0803,-0.077,-0.0752,-0.0759,-0.072,-0.0721,-0.0722,-0.0722,0,-0.0467,-0.0463,-0.0456,-0.0441,-0.0444,-0.043,-0.0454,-0.0463,-0.0477,-0.0526,-0.0533,-0.0553,-0.0596,-0.0586,-0.0595,-0.0596,-0.0619,-0.0633,-0.0644,-0.0653,-0.0684,-0.0633,-0.0515,0,0,0,0,0,-0.0434,-0.0412,-0.04,-0.0372,-0.0375,-0.0373,-0.0399,-0.0429,-0.0477,-0.0473,-0.0508,-0.0508,-0.0524,-0.0535,-0.0522,-0.0548,-0.0606,-0.0531,-0.0625,-0.0675,-0.0684,-0.0734,0,0,0,0,0,0,-0.0402,-0.0388,-0.0376,-0.0312,-0.0288,-0.028,-0.0303,-0.0347,-0.0346,-0.0411,-0.0417,-0.0477,-0.0486,-0.0518,-0.0508,-0.0513,-0.0565,-0.0558,-0.0557,-0.067,-0.0678,-0.0686,-0.074,0,0,0,0,0]},{"header":{"parameterUnit":"m.s-1","parameterCategory":2,"la1":30.2991,"la2":30.254,"lo1":-89.0895,"lo2":-89.0444,"dy":0.0017,"dx":0.0017,"nx":28,"ny":28,"refTime":"2023-10-22T09:00:00:Z","depth":"4","parameterNumber":3,"parameterNumberName":"V-component_of_CURRENTS"},"data":[0,0,0,0,0,0,0,0,0,0,0,0,0,0,0,0,0,0,0,0,0,0,0,0,0,0,0,0,0,0,0,0,0,0,0,0,0,0,0,0,0,0,0,0,0,0,0,0,0,0,0,0,0,0,0,0,0,0,-0.0606,-0.0606,0,-0.0625,-0.0625,-0.0626,-0.0612,-0.0611,-0.061,-0.061,-0.0634,-0.0635,-0.0636,0,0,0,0,0,0,0,0,0,0,0,0,0,-0.0548,-0.0549,-0.0606,-0.0606,-0.0607,-0.0625,-0.0625,-0.0626,-0.0612,-0.0611,-0.061,-0.0609,-0.0633,-0.0635,-0.0636,0,0,0,0,0,0,0,0,0,0,0,0,0,-0.0571,-0.0549,-0.0606,-0.0602,-0.0601,-0.0625,-0.0626,-0.0626,-0.0612,-0.0611,-0.061,-0.0609,-0.0633,-0.0635,-0.0636,-0.0667,0,0,-0.0642,-0.0643,0,0,0,0,0,0,0,0,-0.057,-0.0573,-0.0602,-0.0602,-0.0602,-0.0615,-0.0614,-0.064,-0.0612,-0.0608,-0.061,-0.0609,-0.0628,-0.0631,-0.0637,-0.0669,-0.067,-0.0642,-0.0643,-0.0644,-0.0645,0,0,0,0,0,0,0,-0.0568,-0.0572,-0.0614,-0.0602,-0.0602,-0.0595,-0.0598,-0.0619,-0.0624,-0.0608,-0.0607,-0.0609,-0.0628,-0.0635,-0.0637,-0.067,-0.0642,-0.0644,-0.0645,-0.0646,-0.0769,-0.0771,0,0,0,0,0,0,-0.0567,-0.0571,-0.0613,-0.0615,-0.0583,-0.0597,-0.06,-0.0612,-0.0623,-0.0624,-0.061,-0.0609,-0.0632,-0.0635,-0.0638,-0.0719,-0.0644,-0.0646,-0.0647,-0.0767,-0.0769,-0.0772,0,0,0,0,0,0,-0.0566,-0.0571,-0.0613,-0.0592,-0.0597,-0.0599,-0.0613,-0.0613,-0.0627,-0.0625,-0.0625,-0.0626,-0.0632,-0.0635,-0.0679,-0.0717,-0.0647,-0.0649,-0.0764,-0.0768,-0.0771,-0.0852,0,0,0,0,0,0,-0.0564,-0.0571,-0.0589,-0.0593,-0.0598,-0.0643,-0.0614,-0.0614,-0.0629,-0.0628,-0.0638,-0.0639,-0.0631,-0.0677,-0.0681,-0.0719,-0.065,-0.0762,-0.0766,-0.077,-0.0847,-0.0858,-0.0867,0,0,0,0,0,-0.0562,-0.059,-0.059,-0.0596,-0.062,-0.0645,-0.0648,-0.0645,-0.0631,-0.0652,-0.0662,-0.0639,-0.0705,-0.0681,-0.0685,-0.0724,-0.076,-0.0765,-0.0769,-0.0842,-0.0855,-0.0867,0,0,0,0,0,0,-0.0578,-0.0592,-0.0591,-0.0623,-0.064,-0.0643,-0.0663,-0.0657,-0.0681,-0.0681,-0.0671,-0.0674,-0.0731,-0.0718,-0.0691,-0.0772,-0.0727,-0.0733,-0.0781,-0.0794,-0.0804,-0.0773,-0.0652,0,0,0,0,0,-0.059,-0.0616,-0.0624,-0.0655,-0.0663,-0.0666,-0.0677,-0.0677,-0.0691,-0.07,-0.0709,-0.0723,-0.0755,-0.0765,-0.0792,-0.0834,-0.078,-0.0861,-0.0871,-0.088,-0.0859,-0.0827,-0.0831,-0.0788,-0.0788,-0.0788,0,0,-0.0606,-0.0617,-0.0633,-0.0661,-0.0671,-0.0691,-0.0671,-0.0698,-0.0719,-0.0701,-0.0745,-0.0768,-0.0778,-0.0833,-0.0855,-0.0823,-0.0866,-0.0886,-0.0893,-0.0867,-0.0832,-0.0836,-0.0839,-0.0791,-0.079,-0.079,0,0,-0.064,-0.066,-0.0686,-0.0701,-0.0722,-0.0727,-0.0737,-0.0754,-0.0767,-0.0815,-0.0813,-0.0854,-0.0896,-0.0909,-0.092,-0.1001,-0.0931,-0.1016,-0.1032,-0.1003,-0.1005,-0.1006,-0.0942,-0.0937,-0.1009,-0.101,-0.101,0,-0.0657,-0.0685,-0.07,-0.0722,-0.0736,-0.0743,-0.0766,-0.0789,-0.082,-0.083,-0.084,-0.0902,-0.0929,-0.0968,-0.1007,-0.1023,-0.0975,-0.0985,-0.1013,-0.1013,-0.1012,-0.0946,-0.094,-0.1014,-0.1014,-0.1013,-0.1013,0,-0.0693,-0.0723,-0.0742,-0.077,-0.0792,-0.0819,-0.084,-0.0872,-0.0891,-0.0897,-0.0953,-0.0991,-0.1012,-0.1049,-0.1058,-0.1081,-0.1038,-0.1038,-0.0973,-0.1021,-0.0949,-0.0941,-0.1021,-0.1019,-0.1018,-0.1017,0,0,-0.0711,-0.0756,-0.0765,-0.0778,-0.0816,-0.0834,-0.0882,-0.0911,-0.092,-0.0971,-0.0981,-0.107,-0.1069,-0.1081,-0.1102,-0.1089,-0.1075,-0.1065,-0.1061,-0.0985,-0.0973,-0.0894,-0.0875,-0.1073,-0.1073,-0.1072,-0.0922,0,-0.0733,-0.0778,-0.0797,-0.084,-0.086,-0.0883,-0.0918,-0.0947,-0.0972,-0.0988,-0.1021,-0.1053,-0.1086,-0.1106,-0.1103,-0.1085,-0.1055,-0.1113,-0.095,-0.0944,-0.0855,-0.0865,-0.1069,-0.0915,-0.0913,-0.0911,-0.091,0,-0.0752,-0.0781,-0.0828,-0.0859,-0.0869,-0.0898,-0.0934,-0.0966,-0.0989,-0.1005,-0.1026,-0.1039,-0.1057,-0.1076,-0.1028,-0.1058,-0.1019,-0.0994,-0.0987,-0.087,-0.0848,-0.0859,-0.0893,-0.0894,-0.0896,-0.0897,-0.0898,0,-0.0743,-0.0795,-0.0834,-0.0849,-0.0893,-0.0918,-0.094,-0.0971,-0.0984,-0.1009,-0.0998,-0.1017,-0.1014,-0.0985,-0.0953,-0.0985,-0.0859,-0.0893,-0.0771,-0.0764,-0.0842,-0.0842,-0.0834,-0.0834,-0.0835,-0.0835,-0.0836,0,-0.0743,-0.0772,-0.0835,-0.0851,-0.0885,-0.0917,-0.0944,-0.0966,-0.0979,-0.0971,-0.0999,-0.0978,-0.0991,-0.0931,-0.0911,-0.0792,-0.0818,-0.0751,-0.0719,-0.0882,-0.0889,-0.0835,-0.0837,-0.0829,-0.0831,-0.0832,-0.0833,0,-0.0723,-0.0768,-0.0814,-0.087,-0.0883,-0.0913,-0.0939,-0.0952,-0.0959,-0.0944,-0.095,-0.093,-0.085,-0.0816,-0.0746,-0.0713,-0.0632,-0.0582,-0.0716,-0.0698,-0.0563,-0.0572,-0.0428,-0.0424,-0.042,-0.0417,-0.0415,0,-0.0716,-0.0737,-0.0818,-0.085,-0.0878,-0.0917,-0.0936,-0.0953,-0.0953,-0.0905,-0.0886,-0.0809,-0.0788,-0.0596,-0.0586,-0.0481,-0.0487,-0.0433,-0.0547,-0.0538,-0.0521,-0.0535,-0.0548,-0.0409,-0.0408,-0.0408,-0.0407,0,-0.0692,-0.0737,-0.0779,-0.0838,-0.0878,-0.0908,-0.0925,-0.0913,-0.0915,-0.0903,-0.0805,-0.073,-0.0609,-0.0544,-0.0442,-0.0391,-0.0472,-0.0397,-0.0406,-0.0513,-0.0514,-0.0504,-0.0521,-0.0395,-0.0396,-0.0397,-0.0398,0,-0.0684,-0.0714,-0.0776,-0.0821,-0.087,-0.0892,-0.0904,-0.0879,-0.0865,-0.0805,-0.0766,-0.0663,-0.0621,-0.049,-0.0408,-0.0331,-0.0342,-0.0354,-0.0365,-0.0378,-0.043,-0.0428,-0.0232,0,0,0,0,0,-0.0677,-0.0705,-0.0744,-0.0801,-0.0844,-0.0871,-0.0892,-0.09,-0.0878,-0.0797,-0.0778,-0.0667,-0.0517,-0.0463,-0.0367,-0.0373,-0.0348,-0.026,-0.0374,-0.0328,-0.0342,-0.0407,0,0,0,0,0,0,-0.0681,-0.0723,-0.0738,-0.0768,-0.0797,-0.0836,-0.086,-0.0852,-0.0803,-0.0769,-0.069,-0.0635,-0.0501,-0.0561,-0.0359,-0.0336,-0.0394,-0.0192,-0.019,-0.032,-0.0333,-0.0344,-0.0415,0,0,0,0,0]}]]